Location: Baia de Cri?
(46.1667°N, 22.7167°E)
Time: 21:36:30
(UTC+00:00)

Cosmos 2084 - Pass Details

Date: 15 January 2026
Orbit: 535 x 565 km, 62.8° (Epoch: 10 February)

Event Time Altitude Azimuth Distance (km) Brightness Sun altitude
Exits shadow 04:43:23 23° 301° (WNW) 1,203 4.5 -14.2°
Maximum altitude 04:44:20 26° 323° (NW) 1,135 4.5 -14.1°
Drops below altitude 10° 04:47:50 10° 21° (NNE) 1,843 6.0 -13.5°
Sets 04:50:21 0° 34° (NE) 2,734 7.1 -13.1°
